User: anonymous   Login
Location: Unspecified
(0.0000°N, 0.0000°E)
Time: 08:08:12
(UTC+00:00)
Language:

NUSAT 2 - Orbit

View from above orbital plane
View from above orbital plane
View from above satellite
View from above satellite

Ground track
Ground track

The orbit data is extracted from the following two-line orbital elements,

1 41558U 16033C   19346.22062021  .00001115  00000-0  41553-4 0  9994
2 41558  97.4164  74.3073 0013652  39.2575 320.9652 15.29523458197118
Epoch (UTC): 12 December 2019 05:17:41
Eccentricity: 0.0013652
inclination: 97.4164°
perigee height: 468 km
apogee height: 486 km
right ascension of ascending node: 74.3073°
argument of perigee: 39.2575°
revolutions per day: 15.29523458
mean anomaly at epoch: 320.9652°
orbit number at epoch: 19711

The dashed part of the orbit path shows where the satellite is in the earth's shadow,  

DLR